GFSSGP_sfc_thetae_000.txt.gz
Theta_e
321 316 316 313 303 303 299 306 315 313 314 318 321 318 317 322 320 312 334 339 343 343 345 348 350 351 351 351 352 352 352 351 350 349 348 347 346 344 343 342 343 342 343 344 344 344 345 344 343
316 317 314 309 300 297 301 310 309 313 316 317 318 317 318 316 327 327 329 340 344 345 347 348 350 351 351 351 351 350 351 349 349 348 348 346 345 343 342 341 341 341 341 341 341 340 343 342 341
318 318 307 303 300 297 302 310 312 314 316 316 314 322 321 319 325 326 334 340 346 348 349 350 349 350 351 352 351 350 350 349 349 348 347 345 343 341 339 339 340 339 339 339 339 338 337 337 338
314 311 308 300 298 305 307 312 313 313 317 319 317 316 322 328 326 328 334 338 339 345 348 347 346 348 351 351 350 349 348 347 347 346 345 343 341 339 339 338 336 335 335 335 336 336 337 337 338
314 308 300 300 304 308 312 313 314 312 314 314 315 316 321 329 329 329 330 333 333 341 346 347 344 347 348 348 347 347 346 345 344 343 342 341 339 337 336 335 334 333 332 332 332 331 332 333 334
305 307 298 297 303 309 311 314 314 314 314 312 313 316 321 330 328 328 328 328 331 336 342 343 346 345 345 345 345 344 343 343 343 342 339 339 337 336 335 334 333 331 331 330 329 328 329 330 330
304 301 298 302 304 306 310 314 309 309 310 311 316 314 321 325 329 327 326 326 330 332 332 336 339 340 341 340 341 341 341 341 340 339 338 337 336 335 333 332 331 330 329 328 328 327 326 326 328
307 304 299 304 302 303 308 309 311 310 309 315 316 311 314 325 329 327 324 324 327 332 333 335 336 336 336 337 338 339 339 339 338 338 337 337 336 335 333 332 330 328 327 327 326 325 325 325 326
310 300 301 301 302 302 306 304 308 310 310 311 316 316 323 327 328 325 322 322 324 328 334 335 335 336 338 336 336 338 339 338 338 337 336 334 336 334 331 331 331 330 329 328 326 325 324 325 326
305 301 301 304 304 303 304 304 304 305 307 307 311 320 328 327 326 322 320 319 323 328 331 337 336 336 334 330 335 337 335 336 337 336 336 336 334 333 331 332 332 332 331 330 329 327 327 326 322
306 301 304 304 305 306 304 304 306 305 303 306 307 311 324 325 324 322 320 320 324 329 331 337 340 339 336 333 333 333 334 334 337 337 335 334 334 335 333 333 331 331 330 330 327 325 323 324 321
303 305 305 304 305 304 302 305 303 304 306 310 312 314 322 321 322 322 322 321 324 327 329 337 338 339 336 335 331 333 332 332 332 333 334 333 332 331 328 327 324 323 323 322 323 322 323 322 319
304 304 305 305 305 306 307 304 305 305 309 311 313 317 320 322 323 324 325 325 325 327 329 334 337 337 338 334 336 335 333 333 332 332 332 331 329 329 328 325 323 322 321 320 320 319 319 318 316
306 305 304 306 306 306 304 305 306 308 309 308 311 314 318 322 323 323 324 324 325 327 331 337 337 337 333 332 333 335 334 332 332 329 326 328 327 327 325 323 323 321 321 320 318 318 319 318 316
307 303 305 306 307 306 307 303 303 309 310 308 308 311 315 319 321 322 324 325 327 326 328 335 336 331 330 331 332 332 326 324 325 325 326 325 325 325 325 323 323 323 323 321 320 320 319 318 318
303 305 299 305 307 308 306 299 306 309 308 307 309 309 312 317 319 322 324 324 325 328 327 329 335 331 328 331 327 327 328 326 325 326 325 325 325 325 324 323 322 323 324 321 320 318 317 316 315
303 297 300 302 307 307 305 301 307 310 309 308 309 311 311 312 318 320 323 324 326 325 328 331 330 328 326 327 326 326 326 325 323 322 323 322 322 324 322 321 322 323 321 320 320 318 317 315 315
296 298 299 299 304 303 302 303 307 309 309 309 309 310 311 311 315 320 321 323 326 327 327 330 328 325 325 326 326 323 322 322 322 321 319 321 319 320 320 319 320 322 318 317 317 318 316 315 315
301 299 298 302 305 302 302 303 305 308 309 309 310 311 312 316 320 321 323 325 325 326 325 327 326 326 324 323 319 317 315 317 318 318 318 317 318 317 316 315 315 314 313 314 314 312 311 311 313
301 299 299 302 304 302 303 302 305 307 308 309 309 311 314 315 315 318 320 324 326 325 324 323 322 320 318 317 317 317 317 316 316 317 316 317 316 315 312 313 312 312 310 310 311 311 309 308 309
301 299 300 299 303 304 302 300 302 306 307 308 310 311 312 312 313 315 317 319 321 320 319 317 316 315 316 317 315 314 314 313 312 312 312 313 314 313 312 312 312 311 309 307 307 308 306 304 305
298 303 301 300 298 294 302 292 300 303 304 306 307 309 309 310 312 313 315 316 317 317 318 316 316 315 314 315 313 312 310 309 312 314 312 312 312 311 310 309 309 309 308 306 307 306 306 304 301
301 304 301 301 299 298 299 296 299 303 300 303 306 308 309 311 312 312 313 315 316 317 318 317 315 314 314 313 312 311 312 311 311 310 309 309 309 308 308 307 305 306 305 305 306 304 303 303 301
306 304 303 302 300 294 297 297 295 299 301 303 306 308 310 310 312 312 314 315 315 317 317 316 314 313 314 313 313 311 308 308 307 307 305 304 304 304 305 305 305 305 304 303 303 303 301 298 298
304 301 294 293 294 292 299 295 298 303 304 305 305 307 310 312 312 312 312 312 313 315 315 315 314 312 313 311 310 309 309 308 306 304 302 301 301 301 301 303 303 302 302 303 303 302 301 298 295
301 299 295 286 289 292 298 291 296 304 306 306 307 307 309 310 312 311 312 313 313 315 315 315 313 311 312 312 310 310 309 305 304 303 301 300 300 301 302 302 302 301 300 299 299 297 298 297 297
301 296 300 295 295 291 293 298 302 304 303 304 305 306 307 309 310 311 312 313 313 313 314 314 313 312 312 312 310 307 306 305 304 302 302 301 302 301 301 300 299 300 299 298 296 295 294 294 294
302 302 295 297 287 284 290 292 293 299 301 302 303 304 306 309 310 311 311 312 313 313 313 315 312 310 309 306 305 303 303 305 303 303 301 301 301 300 299 299 298 298 298 297 296 294 295 294 293
300 299 298 296 294 287 286 289 300 300 301 301 303 305 307 308 309 310 310 310 311 311 311 311 309 307 306 305 303 304 303 303 302 301 300 299 298 298 297 297 296 296 295 295 295 293 293 292 291
301 299 298 293 290 294 292 289 303 303 304 304 304 305 307 308 308 308 308 308 308 308 308 307 307 306 305 304 304 302 302 301 300 299 298 297 296 297 296 295 294 294 294 294 293 292 292 291 290

GFSSGP_sfc_thetae_003.txt.gz
Theta_e
317 312 311 307 297 296 293 299 312 308 308 313 320 318 316 318 314 310 337 340 342 344 347 348 348 349 351 352 351 351 351 351 350 349 349 348 346 344 343 343 345 343 343 343 342 343 344 343 342
314 314 309 303 295 290 296 308 305 307 311 317 318 317 316 313 323 326 332 340 343 345 347 348 348 349 350 350 350 350 351 350 350 349 348 346 344 342 341 342 342 341 340 340 340 339 338 338 338
316 314 301 297 294 291 297 307 306 309 313 312 314 319 317 316 324 326 341 345 347 348 349 349 347 348 350 350 349 349 349 349 348 348 344 343 342 340 340 339 340 337 337 338 338 338 338 338 338
309 305 301 293 292 299 304 306 310 312 314 317 316 314 319 322 322 330 346 346 346 346 348 346 346 348 349 349 349 348 347 346 346 345 342 342 340 339 338 336 335 334 334 334 334 333 333 335 336
311 303 293 292 297 305 307 310 310 310 310 313 320 314 314 321 326 328 341 344 343 344 346 347 344 346 348 349 348 346 345 344 343 343 343 340 338 337 336 335 333 332 332 332 331 330 330 331 333
301 300 292 290 298 305 305 309 312 310 311 312 317 316 315 320 320 323 332 339 343 343 344 346 346 344 344 345 344 342 342 343 342 342 341 339 337 337 335 333 332 331 330 329 329 328 327 328 330
298 295 292 297 300 302 304 307 303 308 306 310 319 312 315 317 319 320 323 332 339 340 339 338 341 341 340 339 339 339 340 340 340 339 339 338 336 335 335 333 331 329 328 328 327 327 327 327 328
301 297 294 296 299 297 303 304 303 306 302 310 316 309 310 317 319 317 320 324 327 332 335 334 334 335 333 336 337 338 338 337 337 337 337 336 335 333 334 333 332 331 329 327 327 327 327 326 328
304 294 292 295 300 296 300 299 300 305 306 308 311 316 319 320 318 314 313 316 321 328 330 331 331 331 332 332 337 337 338 337 336 336 335 333 332 331 330 331 331 331 331 330 330 329 328 327 326
298 292 294 299 299 296 298 297 300 301 302 303 314 319 320 320 317 314 313 314 317 322 326 328 328 332 331 333 332 332 334 334 334 334 332 331 330 329 329 329 331 331 331 331 331 330 328 327 320
297 294 297 298 299 300 297 298 301 300 298 302 312 316 318 318 316 315 314 315 318 322 327 329 328 327 326 328 329 331 330 331 332 331 328 329 327 327 326 326 328 326 330 327 328 326 323 321 319
295 299 300 298 300 299 298 298 297 296 299 305 310 320 319 318 317 316 314 314 318 321 329 330 330 327 326 322 322 323 326 326 329 330 329 327 324 321 320 318 319 321 323 323 322 320 319 319 319
298 298 300 300 300 300 303 298 299 298 303 305 307 319 319 319 317 317 316 315 318 320 329 330 329 328 327 324 325 325 325 325 324 326 327 324 322 320 319 319 317 316 315 315 315 315 315 316 315
301 300 298 299 299 301 300 298 300 300 302 304 309 315 315 317 317 316 317 315 316 321 330 329 329 330 329 324 325 325 323 323 325 322 322 323 320 320 319 317 318 316 316 316 314 313 313 314 315
302 296 298 299 301 300 301 296 297 301 302 302 304 307 313 318 318 318 317 316 318 322 331 329 333 332 325 323 324 325 316 318 317 318 318 319 319 318 318 317 318 318 318 318 316 315 315 314 316
297 297 292 299 302 302 299 292 298 303 303 300 302 304 305 313 317 317 317 317 317 325 330 330 330 330 325 321 319 320 319 317 318 317 318 318 318 318 316 315 314 317 318 317 315 314 314 313 312
294 289 294 296 302 301 298 294 300 302 302 301 300 301 302 304 311 316 317 316 315 316 325 325 322 325 323 319 318 318 317 316 315 314 314 313 316 316 314 314 314 315 316 314 314 314 313 312 311
291 293 293 293 296 297 294 294 299 302 303 302 299 303 306 311 312 316 316 315 314 317 326 324 323 322 317 317 315 314 312 312 311 310 309 310 313 313 311 311 311 311 310 309 309 308 309 308 309
297 294 294 295 300 297 296 296 299 302 301 302 306 309 309 310 313 317 317 316 316 319 318 317 316 312 313 311 310 309 307 308 308 309 311 311 310 310 309 308 309 308 307 306 306 307 306 306 307
297 296 295 297 300 296 294 294 299 303 302 303 306 306 307 309 312 313 313 312 312 312 311 311 311 310 310 310 309 308 307 308 307 308 309 310 310 309 308 307 307 306 305 304 303 303 303 302 304
297 296 295 295 298 297 295 293 297 301 304 305 305 305 306 307 308 311 311 309 309 308 308 308 308 308 309 309 307 306 305 305 306 308 308 309 309 307 306 305 304 304 304 302 301 303 301 299 301
295 301 299 297 293 288 294 285 294 299 300 302 303 303 304 306 309 310 309 307 308 307 307 307 308 307 308 307 305 304 304 304 306 306 305 306 305 305 305 304 302 303 302 301 301 304 300 300 298
298 302 299 297 293 291 293 289 294 300 297 299 300 302 303 304 306 306 307 308 308 307 306 306 306 307 307 305 304 305 303 303 304 304 301 300 301 302 303 302 301 301 301 299 299 299 298 298 297
302 300 299 297 294 284 293 292 293 296 298 300 303 304 304 304 305 307 308 309 307 306 306 305 305 305 306 305 304 304 301 301 301 298 297 298 298 300 300 301 300 300 299 298 298 298 297 296 297
299 295 285 284 282 282 297 293 293 298 301 302 302 302 304 305 304 305 306 305 305 304 305 305 306 306 305 304 303 302 301 299 297 296 295 296 297 297 298 298 297 297 297 297 296 295 295 294 293
297 295 284 281 278 285 292 289 291 300 301 302 303 303 304 304 304 304 305 304 305 306 306 306 306 306 307 304 302 301 300 299 298 298 298 298 297 296 298 297 297 297 296 295 294 293 293 294 293
298 289 295 288 285 282 288 293 297 300 300 301 301 302 302 302 303 304 307 308 308 308 306 306 306 305 302 301 300 300 302 301 300 299 297 296 297 299 297 296 296 295 295 295 294 292 291 292 291
298 298 289 287 280 278 285 290 290 297 298 300 298 299 300 302 304 304 305 305 304 304 305 304 303 302 301 299 301 303 302 302 301 297 296 296 295 296 295 294 294 293 293 293 292 291 290 290 289
296 294 294 292 286 279 277 284 296 296 298 298 299 300 300 301 301 302 302 303 303 303 302 302 302 302 300 301 302 301 300 298 297 296 294 294 294 294 294 293 292 292 291 291 291 290 290 289 289
297 296 295 282 285 283 280 283 298 298 299 299 300 301 301 301 301 301 302 301 300 299 299 299 300 300 300 300 299 298 298 297 295 294 293 293 292 293 292 291 289 289 288 287 288 288 289 288 286

GFSSGP_sfc_thetae_006.txt.gz
Theta_e
314 309 310 306 297 295 290 297 310 308 309 318 321 317 314 316 313 309 336 339 343 344 345 346 347 350 351 350 350 349 350 349 348 347 346 345 343 341 341 342 342 341 340 340 340 339 339 339 339
311 312 308 301 294 289 293 304 306 311 314 318 319 319 318 317 328 330 332 341 344 344 344 345 347 349 350 350 350 349 349 349 348 346 345 343 341 340 340 339 341 338 338 338 338 338 339 338 338
314 313 300 297 292 288 295 304 307 311 315 316 314 318 318 318 329 330 338 342 344 344 345 346 346 347 348 348 349 349 349 348 347 345 343 341 340 339 338 337 337 335 335 335 335 335 335 335 336
308 304 300 293 289 294 303 305 311 314 317 318 316 312 317 324 326 338 344 346 344 345 343 343 344 346 348 348 348 347 347 345 344 343 342 340 339 337 336 334 333 332 332 332 332 330 330 331 332
309 300 293 290 292 304 307 309 311 309 314 315 316 311 314 329 342 343 343 343 341 343 346 346 343 345 347 348 347 345 344 344 343 343 341 338 337 336 335 333 331 330 330 329 329 328 328 328 329
299 298 291 287 298 305 305 310 311 315 315 314 314 314 313 327 338 340 343 342 343 342 345 347 346 345 345 345 344 342 341 342 342 341 340 337 336 335 333 332 330 329 328 327 327 327 327 327 327
297 295 291 293 302 302 303 305 305 309 312 314 316 309 313 320 332 338 340 340 341 342 342 342 342 342 340 339 338 339 340 340 339 339 338 337 335 335 334 333 331 329 327 327 326 327 327 326 327
299 296 292 295 300 297 301 301 303 306 305 318 318 308 308 314 326 332 336 336 336 336 337 334 335 335 334 335 336 337 337 336 337 337 335 334 333 334 334 333 332 331 330 329 329 329 328 327 327
301 292 290 293 297 299 301 300 299 304 308 309 311 315 317 315 317 320 320 323 326 331 331 330 330 330 331 331 335 336 337 335 334 335 334 332 329 327 328 330 330 332 330 330 330 331 329 327 326
297 292 293 298 300 297 297 298 299 302 308 310 313 317 316 313 315 315 315 319 322 325 327 328 327 328 329 333 332 331 333 331 331 331 330 329 328 328 328 329 331 331 330 331 331 331 330 328 319
295 293 296 297 301 299 297 297 299 300 301 312 312 313 313 312 311 312 313 318 322 324 328 328 329 329 326 327 327 327 329 329 329 330 329 328 329 324 327 323 324 324 327 324 326 325 323 321 318
293 296 297 297 298 297 297 297 297 297 300 316 317 316 315 313 313 312 312 314 318 324 326 326 327 327 323 325 327 327 327 328 328 328 327 324 322 319 318 318 320 319 318 320 320 320 320 317 319
295 295 297 298 300 297 298 296 297 296 302 317 318 317 316 315 315 315 314 315 318 325 326 326 325 324 323 322 324 324 325 327 327 327 326 322 320 317 317 316 315 314 313 314 313 315 314 313 314
298 297 296 297 298 298 297 296 298 297 301 315 317 315 316 317 316 315 313 313 318 327 325 327 328 327 325 324 323 324 323 322 323 324 322 321 319 318 317 315 315 315 315 315 313 312 312 312 313
298 294 295 294 297 296 299 294 294 300 302 313 315 316 316 317 317 316 315 314 318 327 328 328 328 326 324 322 324 324 317 318 318 317 316 317 317 316 315 313 312 313 315 314 313 312 312 312 312
296 294 289 296 298 299 297 290 297 298 299 300 308 313 313 314 316 316 315 314 319 327 327 328 326 327 321 320 319 317 317 315 314 315 315 316 316 314 312 311 310 312 312 311 310 311 310 309 308
292 287 290 293 299 297 295 292 297 299 299 297 297 300 305 308 312 313 312 312 326 327 326 324 325 323 321 319 317 315 314 314 312 311 309 313 313 313 310 308 308 310 308 307 307 307 307 306 305
288 290 288 291 295 296 293 292 297 298 301 303 305 307 309 309 309 313 314 317 316 322 321 320 322 321 315 311 311 311 311 310 308 307 309 310 310 309 307 307 307 307 306 304 304 303 303 303 303
296 293 291 292 297 295 294 294 296 301 305 304 305 308 308 307 309 311 312 312 312 311 312 311 312 314 310 309 309 309 305 306 306 306 309 309 309 309 307 305 306 305 304 302 302 302 301 301 302
297 294 293 296 299 295 294 293 297 302 302 304 305 306 306 307 307 308 309 309 308 307 310 310 309 308 309 310 309 307 305 305 306 311 309 308 307 306 305 303 302 303 302 300 300 300 299 300 300
296 294 293 293 295 295 296 292 296 300 301 302 302 305 307 307 306 307 307 305 304 304 305 306 305 306 307 307 305 305 305 306 306 305 304 304 303 303 302 301 301 301 300 299 298 299 298 297 298
293 299 297 295 291 286 292 284 292 296 298 301 303 303 305 306 307 307 305 304 304 303 303 304 305 305 305 305 304 304 303 302 303 302 300 299 300 301 301 300 300 300 300 298 298 300 297 297 295
296 299 296 295 290 289 290 287 290 297 295 297 298 302 303 304 305 305 305 305 305 304 303 303 305 305 304 303 303 303 301 300 301 299 297 297 298 299 299 300 300 299 298 297 296 297 295 295 294
300 298 297 295 292 283 291 289 290 292 296 298 299 301 302 302 303 305 306 306 305 304 303 302 303 304 304 303 302 303 300 299 297 295 294 295 297 297 298 299 296 295 295 295 294 293 293 292 292
297 293 283 283 280 281 294 290 291 298 300 301 300 300 301 302 303 304 304 304 304 304 304 303 304 304 304 303 300 299 298 296 295 295 297 297 298 297 297 296 295 294 294 294 293 292 293 293 292
295 293 283 280 278 283 292 286 289 299 303 303 304 302 302 302 303 303 303 302 302 304 303 303 302 299 300 299 298 299 298 299 299 299 295 297 297 296 295 295 294 294 294 293 292 291 290 290 290
295 287 294 286 283 281 286 290 295 299 299 301 301 303 300 300 300 301 302 302 303 303 301 303 302 300 299 299 299 299 301 301 300 301 298 297 295 296 294 294 293 292 292 292 291 289 289 288 287
294 296 288 285 278 277 283 287 288 294 295 297 296 297 299 300 300 301 301 301 301 301 303 304 302 300 298 299 300 302 301 300 299 296 294 293 293 294 293 292 291 291 291 290 290 289 288 287 287
294 292 292 290 284 278 276 282 293 296 296 296 296 298 298 298 299 299 299 299 299 299 298 299 298 300 298 298 298 297 297 296 296 294 294 293 293 294 294 292 290 289 288 288 287 287 288 287 286
295 293 292 281 284 281 278 282 295 296 297 299 299 299 299 299 299 299 298 297 296 296 296 295 296 297 297 298 298 297 297 296 294 293 292 292 292 292 291 291 289 287 286 285 285 285 285 283 282

GFSSGP_sfc_thetae_009.txt.gz
Theta_e
314 307 309 306 296 294 290 295 308 307 311 319 320 317 316 319 314 307 333 338 343 342 344 345 347 349 349 349 349 349 349 347 346 345 344 342 341 341 340 340 339 337 337 338 338 338 338 338 338
308 309 306 300 292 289 293 304 307 312 316 318 319 321 320 319 329 331 332 342 343 342 343 345 347 348 349 349 348 348 348 347 346 345 343 341 340 339 338 337 338 336 335 336 335 335 335 335 336
309 309 299 296 291 287 294 305 308 313 317 316 315 317 318 323 330 330 337 343 343 341 343 346 346 347 348 349 348 348 348 347 346 344 342 340 339 337 335 335 335 334 333 333 332 332 331 332 332
304 301 297 293 290 293 299 303 310 311 315 318 316 313 319 328 330 335 341 342 341 340 342 343 343 345 348 348 348 347 347 344 343 343 340 339 337 335 333 333 332 331 331 331 329 328 328 329 329
303 296 292 290 292 298 302 308 312 311 313 314 316 312 315 333 337 340 341 342 340 341 343 343 342 345 346 347 346 346 344 342 343 341 339 338 336 334 333 331 330 330 329 329 328 328 327 327 327
296 294 289 289 296 303 303 308 313 313 314 315 316 313 313 335 337 340 341 340 342 342 345 344 344 344 344 345 343 342 341 342 341 341 339 337 335 334 332 330 329 328 328 328 328 328 328 327 327
292 292 288 293 299 300 304 306 313 312 312 313 316 308 315 329 335 340 340 339 340 341 342 344 345 343 341 339 338 338 339 339 339 339 338 337 335 334 333 331 329 328 327 328 328 328 328 328 327
296 294 290 296 298 299 303 302 307 314 310 317 316 308 312 318 334 338 338 338 339 339 339 338 335 335 333 334 336 337 336 336 337 337 335 333 332 333 334 332 332 331 329 329 330 329 329 328 328
297 290 288 292 296 302 308 299 301 308 313 312 312 312 324 326 332 331 331 331 332 334 331 330 330 330 329 330 334 336 336 335 334 334 333 330 326 325 326 330 330 331 331 330 330 331 330 329 327
295 289 292 297 300 300 299 302 305 308 309 310 310 313 322 323 326 324 324 324 324 326 327 328 327 327 328 333 331 329 331 329 329 329 329 327 326 326 327 327 330 331 331 331 331 331 330 329 320
294 292 295 296 303 302 299 297 299 307 303 311 309 310 316 320 320 320 320 322 323 325 327 326 326 326 327 328 328 327 328 327 327 328 327 326 328 325 325 323 322 321 325 322 324 323 321 320 318
292 296 296 297 299 297 296 297 299 297 308 314 314 313 313 314 316 317 318 320 320 323 325 326 326 325 324 325 325 325 326 327 327 328 327 324 322 319 318 318 316 314 313 313 317 317 318 316 315
294 293 295 297 297 296 297 295 297 295 304 316 315 312 312 313 313 316 319 319 321 324 325 326 327 325 323 324 325 325 325 328 328 327 326 324 319 315 315 314 313 313 313 313 312 311 311 311 312
297 294 293 295 297 296 295 294 294 295 311 313 312 311 311 311 312 311 311 314 320 324 325 324 326 324 322 321 323 323 324 326 326 325 323 320 317 316 315 313 312 312 313 313 312 311 310 310 310
296 292 293 292 294 294 297 292 292 297 312 312 312 313 312 313 312 312 312 312 320 324 325 325 324 324 321 321 321 321 322 321 321 318 317 317 316 314 313 310 309 310 311 309 308 308 308 306 307
293 291 288 294 296 295 294 289 294 297 310 310 310 310 311 310 311 311 313 310 316 323 324 325 327 323 322 320 320 318 315 313 314 315 313 314 314 312 309 307 306 307 308 307 306 306 304 303 303
290 285 288 292 297 295 293 290 295 294 303 299 303 305 307 308 310 312 314 314 320 323 323 323 326 324 321 318 317 315 312 310 309 309 310 310 310 309 306 305 306 307 306 304 303 303 303 301 301
286 288 287 289 293 293 291 291 296 300 301 302 302 303 304 306 308 312 315 318 318 317 320 320 320 318 315 313 310 310 311 310 309 307 307 308 308 307 306 305 304 305 302 301 301 300 301 300 301
293 290 289 289 295 294 292 293 297 301 303 303 303 303 304 305 306 308 308 310 310 311 312 313 315 316 312 309 309 309 304 305 306 307 308 307 306 305 302 301 301 302 300 299 299 299 299 298 299
295 291 290 293 296 295 295 293 297 300 301 303 303 302 303 304 305 306 307 307 307 309 310 310 309 309 309 310 308 307 306 305 309 308 305 304 303 301 301 299 299 299 299 298 297 297 297 297 298
294 291 291 292 294 295 295 292 293 298 300 303 303 304 303 304 304 305 305 302 303 304 305 305 305 306 307 309 307 304 304 304 303 301 300 299 301 300 300 299 299 299 298 296 296 296 296 294 296
291 296 295 293 290 287 291 283 291 294 297 300 301 302 303 304 305 304 302 301 301 300 301 302 303 303 304 304 303 302 301 301 301 299 296 296 299 298 299 298 298 297 297 295 296 296 293 293 292
295 297 294 293 288 287 288 285 288 295 294 297 299 303 304 304 303 303 303 303 302 302 301 301 303 303 303 302 302 302 300 298 298 295 295 295 297 297 298 297 297 297 296 294 293 292 292 292 290
298 296 295 293 290 282 289 287 287 290 294 296 299 302 304 302 302 303 304 304 302 301 301 300 301 302 302 301 300 300 297 296 294 293 294 294 295 296 297 298 296 295 294 292 292 291 290 290 290
296 291 282 282 280 280 291 288 289 295 297 298 299 299 301 301 302 304 304 302 301 300 300 302 301 299 298 298 297 297 295 294 295 297 298 297 297 297 296 295 294 293 293 292 291 290 289 289 287
292 291 283 280 277 282 290 285 289 297 300 301 301 300 300 303 303 301 300 300 299 299 297 297 297 297 298 298 297 297 298 297 299 300 299 297 295 295 294 293 293 293 293 291 290 289 288 287 286
293 287 292 284 282 281 284 288 294 296 298 299 300 300 298 298 298 299 300 299 299 299 299 298 297 297 298 299 298 298 298 298 298 298 296 294 293 295 293 294 294 294 291 291 290 288 287 287 286
294 296 286 284 277 276 282 284 285 291 294 296 295 296 297 297 298 298 298 298 297 298 298 299 299 298 297 297 297 298 298 297 297 296 294 293 292 295 295 295 293 292 291 291 288 287 286 287 286
292 290 289 288 282 277 275 282 291 293 294 294 294 296 296 296 297 298 297 298 296 295 295 294 296 295 293 293 295 295 295 295 295 293 292 292 292 294 294 293 291 290 288 287 286 285 286 286 285
293 291 289 280 282 279 277 281 293 295 296 296 296 296 296 297 297 297 296 296 295 292 291 291 290 290 291 292 292 293 293 293 292 292 291 292 292 290 290 291 292 289 287 286 285 285 285 283 281

GFSSGP_sfc_thetae_012.txt.gz
Theta_e
314 309 304 302 294 293 288 294 307 307 311 318 321 319 318 321 315 309 335 339 342 342 345 345 346 348 349 348 347 348 347 346 345 344 342 341 340 339 339 338 340 337 337 336 336 336 336 336 336
304 306 302 297 290 286 289 299 307 312 316 318 319 318 320 318 329 330 333 342 342 342 343 345 346 347 348 347 348 348 347 346 345 344 341 340 339 337 336 336 338 335 334 334 333 332 332 332 332
305 306 296 292 288 288 291 307 310 313 316 315 314 317 318 321 330 331 338 342 342 340 343 345 345 346 347 348 348 347 347 346 345 343 340 339 337 335 334 334 335 333 332 330 330 329 328 328 329
302 300 295 289 287 293 298 306 312 312 316 318 315 313 320 328 330 336 342 342 339 338 341 342 343 346 348 348 348 347 346 345 344 342 340 338 336 334 333 332 331 330 330 329 329 328 328 327 328
299 294 288 286 287 293 297 308 311 311 313 313 314 312 316 332 337 339 340 340 339 340 340 342 342 345 347 348 347 346 344 342 342 341 340 337 335 333 331 331 330 329 329 330 329 329 328 328 328
295 292 287 285 291 300 301 310 314 313 314 315 315 314 316 336 336 339 340 339 341 341 342 341 343 344 344 345 345 343 342 341 341 340 339 336 335 334 331 330 330 328 329 329 330 329 329 329 329
292 289 286 290 298 298 300 313 312 311 313 313 316 309 321 329 337 339 339 340 342 343 342 341 340 341 341 340 339 339 339 340 339 338 337 337 334 333 332 331 331 329 330 330 331 331 330 330 330
294 291 288 295 298 298 305 303 313 312 311 316 316 313 318 326 336 338 337 337 338 339 339 339 340 341 336 334 336 336 336 337 336 337 335 333 332 332 332 331 330 331 330 330 331 331 331 331 330
294 289 286 294 299 300 308 300 303 311 312 312 312 317 325 334 335 333 333 334 335 337 337 337 337 335 331 330 334 336 336 335 335 334 333 329 324 324 324 330 331 332 331 331 331 332 331 330 328
293 289 290 296 301 304 308 303 305 310 309 308 310 323 330 332 330 328 327 327 330 331 332 332 329 327 327 333 330 328 329 329 328 328 328 326 325 324 326 327 329 330 330 331 331 331 330 327 320
291 291 293 295 305 305 299 303 302 309 304 308 312 318 323 326 326 325 325 326 327 329 329 327 326 326 325 327 326 325 326 325 326 326 325 325 326 324 323 322 320 319 323 318 319 320 319 319 318
292 296 296 296 302 298 299 298 305 302 306 314 319 322 321 322 321 322 321 322 321 323 325 326 325 324 324 324 324 324 325 325 325 326 326 324 322 318 317 315 313 312 312 312 313 314 314 313 312
295 295 295 296 296 295 297 296 302 296 307 313 318 319 318 319 318 318 319 320 320 321 323 323 324 323 323 323 323 322 323 325 325 325 325 322 319 314 314 313 313 312 312 312 310 310 310 310 310
297 293 294 296 294 292 294 293 293 295 310 310 313 315 315 317 315 313 315 316 318 322 322 324 324 323 322 321 322 322 323 324 325 323 322 320 316 314 314 312 311 309 310 309 309 309 308 307 307
295 292 292 293 293 293 296 291 290 299 310 308 309 310 308 309 309 308 311 313 317 321 322 322 323 321 321 320 321 323 323 322 321 318 318 317 315 314 310 307 306 306 308 307 306 306 304 303 304
292 290 287 291 294 294 292 286 293 303 309 306 307 309 309 309 309 309 312 311 315 321 322 323 325 323 323 320 320 321 317 317 314 313 314 312 311 308 306 305 305 307 306 304 303 303 301 301 301
289 284 287 290 294 293 292 288 295 297 306 302 303 303 306 307 310 312 315 310 318 322 323 322 323 323 322 319 318 316 312 311 307 308 307 307 308 307 305 306 306 304 302 301 301 300 300 300 300
285 286 286 287 291 293 290 293 297 300 301 301 300 302 304 304 304 310 314 316 317 319 320 319 319 319 317 315 311 311 310 309 309 307 306 307 307 306 306 303 302 301 299 298 298 298 299 299 299
291 289 287 287 292 294 293 293 296 300 300 299 299 301 301 303 305 308 310 312 312 313 316 314 314 314 312 308 309 307 306 307 306 304 304 305 305 303 300 299 299 299 298 297 298 297 297 297 298
293 289 288 291 295 295 293 291 294 297 298 299 300 300 301 302 303 305 306 307 309 309 312 313 310 309 309 309 307 308 305 304 304 301 300 300 300 299 299 298 298 297 297 296 296 296 295 295 296
292 290 289 290 295 294 293 291 292 297 301 302 301 301 302 302 302 303 303 302 306 306 304 305 305 305 306 307 304 302 303 303 301 299 296 297 298 298 298 298 297 297 296 296 295 294 294 292 294
289 294 292 292 290 286 291 283 289 294 296 299 300 299 300 301 301 301 300 300 300 299 300 301 302 302 303 302 302 301 299 299 298 296 294 295 297 298 298 298 297 296 295 297 294 294 292 293 290
293 296 293 291 288 286 287 285 287 294 294 297 298 300 300 300 300 302 300 300 300 300 300 300 301 302 301 300 301 300 297 297 295 294 294 294 296 297 297 296 296 296 294 293 292 291 290 290 289
297 295 293 291 288 281 286 286 285 290 294 296 298 301 301 300 300 301 302 303 302 301 299 299 300 299 299 299 298 297 296 294 294 295 295 294 294 295 295 296 294 293 292 292 291 290 289 288 288
295 290 282 281 279 280 289 286 287 294 296 299 299 299 300 299 299 300 301 301 299 298 298 299 297 297 297 297 296 296 295 294 295 295 295 295 295 295 294 293 293 292 292 294 292 289 288 287 286
290 290 283 278 276 281 288 284 288 295 297 300 300 299 299 300 301 300 298 297 296 296 295 296 296 296 297 297 296 296 295 295 296 296 296 295 294 294 293 292 292 292 293 293 293 291 288 288 287
291 285 291 284 281 280 283 288 292 295 296 297 298 298 298 298 297 297 298 297 297 297 297 296 296 297 297 296 296 296 296 296 296 296 295 294 293 294 292 291 293 292 294 292 290 288 287 287 287
292 294 285 283 277 275 280 283 284 291 294 296 296 296 296 296 297 297 296 296 296 296 296 297 297 293 293 292 293 294 293 293 293 293 292 292 292 292 294 294 293 293 291 290 290 289 286 286 285
291 288 287 286 281 276 273 281 290 293 296 294 294 295 296 295 295 295 294 294 294 295 294 294 292 291 290 290 291 290 291 291 291 291 291 290 291 292 292 293 290 289 289 288 286 285 284 284 284
292 289 287 279 280 278 276 280 291 293 294 295 294 295 295 295 295 294 294 294 292 291 291 290 290 290 290 290 289 289 290 290 290 290 290 290 290 290 290 289 291 291 287 285 283 283 283 283 282